Back to catalog

CZ-4 DEB

AlivePO
NORAD 26143·DEBRIS·🇨🇳 China

Launched Oct 14, 1999 from Taiyuan Satellite Launch Center

Loading…

Next Passes (next 24 hours)

TLE

FreshSource: Space-Track

Epoch: Sep 14, 2026, 08:54 UTC

1 26143U 99057AF  26257.37139310  .00000192  00000-0  19031-3 0  9994
2 26143  99.0061 209.8807 0474660 258.7500 258.9513 13.47711142299735

Track CZ-4 DEB in real time with AllMySat

Download on the App Store